TimeCST,TemperatureF,Dew PointF,Humidity,Sea Level PressureIn,VisibilityMPH,Wind Direction,Wind SpeedMPH,Gust SpeedMPH,PrecipitationIn,Events,Conditions,WindDirDegrees,DateUTC
7:35 AM,40.6,40.6,100,30.12,10.0,East,3.5,-,N/A,,Overcast,90,2012-12-06 13:35:00
7:55 AM,41.5,40.1,95,30.12,10.0,East,3.5,-,N/A,,Overcast,80,2012-12-06 13:55:00
8:15 AM,42.8,38.1,84,30.13,10.0,East,3.5,-,N/A,,Overcast,80,2012-12-06 14:15:00
8:35 AM,43.7,37.4,78,30.13,10.0,East,3.5,-,N/A,,Overcast,80,2012-12-06 14:35:00
8:55 AM,44.4,37.9,78,30.12,10.0,Calm,Calm,-,N/A,,Overcast,0,2012-12-06 14:55:00
9:15 AM,45.3,38.3,76,30.13,10.0,Calm,Calm,-,N/A,,Overcast,0,2012-12-06 15:15:00
9:35 AM,46.0,39.2,77,30.13,2.0,Calm,Calm,-,N/A,,Heavy Drizzle,0,2012-12-06 15:35:00
9:55 AM,45.9,41.5,85,30.13,10.0,Calm,Calm,-,N/A,,Overcast,0,2012-12-06 15:55:00
10:15 AM,46.8,44.6,92,30.12,4.0,Calm,Calm,-,N/A,Rain,Heavy Rain,0,2012-12-06 16:15:00
10:35 AM,-9999,-9999,N/A,30.11,7.0,Calm,Calm,-,0.01,,Light Drizzle,0,2012-12-06 16:35:00
10:55 AM,48.4,48.4,100,30.10,10.0,East,4.6,-,0.01,,Overcast,90,2012-12-06 16:55:00
11:15 AM,49.3,49.1,99,30.09,10.0,Calm,Calm,-,N/A,,Overcast,0,2012-12-06 17:15:00
11:35 AM,50.4,49.1,95,30.08,10.0,Calm,Calm,-,N/A,,Overcast,0,2012-12-06 17:35:00
11:55 AM,51.4,47.1,85,30.08,10.0,Calm,Calm,-,N/A,,Overcast,0,2012-12-06 17:55:00
12:15 PM,51.8,46.4,82,30.08,5.0,Calm,Calm,-,N/A,Rain,Rain,0,2012-12-06 18:15:00
12:35 PM,51.8,46.9,83,30.07,10.0,SSE,3.5,-,N/A,,Overcast,150,2012-12-06 18:35:00
12:55 PM,52.3,47.3,83,30.05,10.0,East,3.5,-,N/A,,Overcast,100,2012-12-06 18:55:00
1:15 PM,52.9,47.5,82,30.04,10.0,East,3.5,-,N/A,,Overcast,100,2012-12-06 19:15:00
1:35 PM,53.6,48.2,82,30.03,10.0,East,3.5,-,N/A,,Overcast,100,2012-12-06 19:35:00
1:55 PM,53.8,48.6,82,30.03,10.0,ESE,4.6,-,N/A,,Overcast,120,2012-12-06 19:55:00
2:15 PM,54.5,48.6,80,30.03,10.0,ESE,4.6,-,N/A,,Overcast,120,2012-12-06 20:15:00
2:35 PM,55.0,49.1,80,30.03,10.0,East,3.5,-,N/A,,Overcast,90,2012-12-06 20:35:00
2:55 PM,55.6,49.5,80,30.02,10.0,Calm,Calm,-,N/A,,Overcast,0,2012-12-06 20:55:00
3:15 PM,55.8,49.6,80,30.02,10.0,Calm,Calm,-,N/A,,Overcast,0,2012-12-06 21:15:00
3:35 PM,55.8,49.8,80,30.02,10.0,East,3.5,-,N/A,,Overcast,90,2012-12-06 21:35:00
3:55 PM,55.6,50.2,82,30.02,10.0,Calm,Calm,-,N/A,,Overcast,0,2012-12-06 21:55:00
4:15 PM,55.4,49.8,81,30.02,10.0,Calm,Calm,-,N/A,,Overcast,0,2012-12-06 22:15:00
4:35 PM,54.9,49.3,81,30.02,10.0,Calm,Calm,-,N/A,,Overcast,0,2012-12-06 22:35:00
4:55 PM,54.3,49.3,83,30.02,10.0,East,3.5,-,N/A,,Overcast,90,2012-12-06 22:55:00
5:15 PM,54.0,49.3,84,30.01,10.0,Calm,Calm,-,N/A,,Overcast,0,2012-12-06 23:15:00
5:35 PM,53.6,48.9,84,30.01,10.0,East,3.5,-,N/A,,Overcast,90,2012-12-06 23:35:00
5:55 PM,52.5,50.4,92,30.01,10.0,East,4.6,-,N/A,,Overcast,90,2012-12-06 23:55:00
6:15 PM,53.1,50.0,89,30.01,10.0,East,3.5,-,N/A,Rain,Light Rain,90,2012-12-07 00:15:00
6:35 PM,53.4,48.9,85,30.01,10.0,Calm,Calm,-,N/A,,Overcast,0,2012-12-07 00:35:00
6:55 PM,53.4,49.3,86,30.01,10.0,Calm,Calm,-,N/A,,Overcast,0,2012-12-07 00:55:00
7:15 PM,54.0,49.1,84,30.01,10.0,Calm,Calm,-,N/A,,Overcast,0,2012-12-07 01:15:00
7:35 PM,54.7,48.6,80,30.00,10.0,Calm,Calm,-,N/A,,Overcast,0,2012-12-07 01:35:00
7:55 PM,54.9,48.4,79,30.00,10.0,Calm,Calm,-,N/A,,Overcast,0,2012-12-07 01:55:00
8:35 PM,55.9,47.7,74,30.00,10.0,South,4.6,-,N/A,,Overcast,170,2012-12-07 02:35:00
8:55 PM,56.7,47.5,71,30.00,10.0,South,3.5,-,N/A,,Overcast,190,2012-12-07 02:55:00
9:15 PM,56.5,47.3,71,30.01,10.0,SSW,4.6,-,N/A,,Overcast,200,2012-12-07 03:15:00
9:35 PM,56.3,47.3,72,30.01,10.0,SSW,5.8,-,N/A,,Overcast,210,2012-12-07 03:35:00
9:55 PM,56.3,47.8,73,30.01,7.0,South,4.6,-,N/A,,Drizzle,180,2012-12-07 03:55:00
10:15 PM,54.7,49.1,81,30.01,10.0,Calm,Calm,-,0.01,Rain,Light Rain,0,2012-12-07 04:15:00
10:35 PM,53.8,50.5,89,30.00,7.0,Calm,Calm,-,0.01,Rain,Light Rain,0,2012-12-07 04:35:00
10:55 PM,54.0,50.7,89,30.00,7.0,SE,5.8,-,0.01,Rain,Light Rain,130,2012-12-07 04:55:00
11:15 PM,53.8,50.5,89,30.00,10.0,SSE,4.6,-,N/A,,Overcast,150,2012-12-07 05:15:00
11:35 PM,54.1,49.3,84,30.00,10.0,SSE,6.9,-,N/A,,Overcast,160,2012-12-07 05:35:00
11:55 PM,54.7,48.4,79,29.99,10.0,SSE,5.8,-,N/A,,Overcast,160,2012-12-07 05:55:00